Other Public Products
Issued by NWS Charleston, SC

Home | Current Version | Previous Version | Text Only | Print | Product List | Glossary On
Versions: 1 2 3 4 5 6 7 8 9 10 11 12 13 14 15 16 17 18 19 20 21 22 23 24 25 26 27 28 29 30 31 32 33 34 35 36 37 38 39 40 41 42 43 44 45 46 47 48 49 50
000
FPUS82 KCHS 222327
OPUCHS

TEST...KCHS/KSAV Gateway Observations...TEST
National Weather Service Charleston SC
700 PM EDT MON MAY 22 2017

NOTE: "fair" indicates few or no clouds below 12,000 feet with no
significant weather and/or obstructions to visibility.

SCZ050-WAZ558-NCZ071-TXZ119-213-PAZ071-DCZ001-FLZ074-172-MI076-
NYZ176-178-MAZ016-IL014-TNZ027-NJZ106-GAZ044-MD014-230000-

...Gateway Observations for Charleston International...

CITY           SKY/WX    TMP DP  RH WIND       PRES   REMARKS
Chas Airport   CLOUDY    78  71  79 S6        29.96R
Seattle        MOSUNNY   80  54  40 NW10      30.08F
Charlotte      CLOUDY    73  64  73 SW16G23   29.96S
Dallas DFW     CLOUDY    77  61  57 SE8       29.91F
Dallas Love    PTSUNNY   77  60  55 E7        29.92F
Philladelphia  CLOUDY    65  62  90 CALM      29.97S
Wash National  CLOUDY    71  64  78 S5        29.96S
Baltimore      CLOUDY    65  64  97 E6        29.96S
Miami          MOSUNNY   83  70  64 SE14      29.99S
Detroit        MOSUNNY   69  45  41 W16       29.96S
Newark         CLOUDY    59  59 100 SE3       29.96F FOG
Laguardia      CLOUDY    61  59  93 S6        29.96S FOG
J F K          CLOUDY    60  60 100 S6        29.98S
Boston Logan   DRIZZLE   52  51  97 S8        30.05S FOG
Ft. Lauderdale MOSUNNY   83  70  64 SE14      29.98S
Chicago O`Hare CLOUDY    70  49  47 SW17      29.90R
Chicago Midway CLOUDY    72  43  35 SW20G25   29.91R
Houston Bush   LGT RAIN  72  68  87 N8        29.87F
Houston Hobby  PTSUNNY   77  69  76 N8        29.86F
Nashville      CLOUDY    72  50  45 NE7       29.99F
Atlanta        CLOUDY    71  66  84 N5        29.98R

$$

GAZ044-118-TXZ119-213-NCZ071-DCZ001-MDZ014-506-PAZ021-071-NJZ106-
NYZ176-178-MAZ106-OHZ011-021-055-MIZ076-KYZ091-ILZ014-INZ047-
MNZ060-ONZ431-230000-

...Gateway Observations for Savannah International...

CITY           SKY/WX    TMP DP  RH WIND       PRES   REMARKS
Savannah Arpt  CLOUDY    72  68  87 SE5       29.94F
Atlanta        CLOUDY    71  66  84 N5        29.98R
Charlotte      CLOUDY    73  64  73 SW16G23   29.96S
Dallas DFW     CLOUDY    77  61  57 SE8       29.91F
Houston Bush   LGT RAIN  72  68  87 N8        29.87F
Wash National  CLOUDY    71  64  78 S5        29.96S
Wash Dulles    CLOUDY    72  62  71 CALM      29.95S
Baltimore      CLOUDY    65  64  97 E6        29.96S
Philadelphia   CLOUDY    65  62  90 CALM      29.97S
Newark         CLOUDY    59  59 100 SE3       29.96F FOG
Laguardia      CLOUDY    61  59  93 S6        29.96S FOG
J F K          CLOUDY    60  60 100 S6        29.98S
Boston         DRIZZLE   52  51  97 S8        30.05S FOG
Pittsburg      CLOUDY    66  47  50 NW12      30.02S
Akron          PTSUNNY   65  44  46 W8        30.03S
Cleveland      PTSUNNY   69  46  43 SW9       30.02F
Cincinnati     MOSUNNY   69  43  38 CALM      30.03F
Columbus       MOSUNNY   65  45  48 CALM      30.03S
Detroit        MOSUNNY   69  45  41 W16       29.96S
Chicago O`Hare CLOUDY    70  49  47 SW17      29.90R
Minneapolis    MOSUNNY   65  40  39 W13       29.81S
Indianapolis   MOSUNNY   70  44  39 S6        30.00F
Toronto Canada PTSUNNY   63  45  51 W16G24    29.92S

$$




USA.gov is the U.S. government's official web portal to all federal, state and local government web resources and services.